TimeMST,TemperatureF,Dew PointF,Humidity,Sea Level PressureIn,VisibilityMPH,Wind Direction,Wind SpeedMPH,Gust SpeedMPH,PrecipitationIn,Events,Conditions,WindDirDegrees,DateUTC
12:54 AM,21.9,18.0,85,29.99,7.0,NE,3.5,-,N/A,,Overcast,40,2013-02-23 07:54:00
1:54 AM,17.1,12.9,84,29.97,7.0,NE,5.8,-,N/A,,Mostly Cloudy,40,2013-02-23 08:54:00
2:54 AM,19.0,15.1,85,29.94,5.0,NNE,3.5,-,N/A,,Overcast,20,2013-02-23 09:54:00
3:12 AM,17.6,15.8,93,29.77,5.0,NNE,3.5,-,N/A,,Overcast,20,2013-02-23 10:12:00
3:51 AM,17.6,14.0,86,29.75,0.2,North,3.5,-,N/A,Fog,Light Freezing Fog,350,2013-02-23 10:51:00
3:54 AM,17.1,14.0,88,29.93,0.2,North,3.5,-,N/A,Fog,Light Freezing Fog,360,2013-02-23 10:54:00
4:33 AM,12.2,8.6,85,29.75,6.0,North,6.9,-,N/A,,Scattered Clouds,10,2013-02-23 11:33:00
4:54 AM,12.0,7.0,80,29.95,6.0,North,5.8,-,N/A,,Haze,350,2013-02-23 11:54:00
5:54 AM,10.0,1.9,70,29.94,10.0,North,5.8,-,N/A,,Clear,10,2013-02-23 12:54:00
6:54 AM,12.0,3.0,67,29.93,10.0,North,5.8,-,N/A,,Clear,350,2013-02-23 13:54:00
7:54 AM,18.0,5.0,57,29.94,10.0,North,4.6,-,N/A,,Clear,360,2013-02-23 14:54:00
8:54 AM,25.0,10.0,53,29.90,10.0,North,5.8,-,N/A,,Clear,10,2013-02-23 15:54:00
9:54 AM,32.0,9.0,38,29.86,10.0,NE,4.6,-,N/A,,Clear,40,2013-02-23 16:54:00
10:54 AM,33.1,6.1,32,29.82,10.0,East,4.6,-,N/A,,Clear,100,2013-02-23 17:54:00
11:54 AM,34.0,7.0,32,29.80,10.0,ESE,4.6,-,N/A,,Clear,110,2013-02-23 18:54:00
12:54 PM,37.4,8.6,30,29.66,10.0,East,8.1,-,N/A,,Clear,90,2013-02-23 19:54:00
1:54 PM,35.1,16.0,46,29.76,10.0,SE,10.4,-,N/A,,Partly Cloudy,130,2013-02-23 20:54:00
2:54 PM,35.1,19.9,54,29.73,10.0,SE,6.9,-,N/A,,Partly Cloudy,130,2013-02-23 21:54:00
3:54 PM,37.0,19.9,50,29.71,10.0,SSE,3.5,-,N/A,,Partly Cloudy,160,2013-02-23 22:54:00
4:54 PM,37.0,19.0,48,29.73,10.0,SE,3.5,-,N/A,,Partly Cloudy,140,2013-02-23 23:54:00
5:54 PM,34.0,23.0,64,29.74,10.0,ENE,9.2,-,N/A,,Partly Cloudy,70,2013-02-24 00:54:00
6:54 PM,33.1,19.9,59,29.76,10.0,East,6.9,-,N/A,,Partly Cloudy,100,2013-02-24 01:54:00
7:54 PM,30.0,19.0,64,29.75,10.0,ENE,9.2,-,N/A,,Scattered Clouds,70,2013-02-24 02:54:00
8:54 PM,30.0,17.1,59,29.73,10.0,ENE,8.1,-,N/A,,Mostly Cloudy,60,2013-02-24 03:54:00
9:54 PM,32.0,18.0,56,29.68,10.0,SSW,6.9,-,N/A,,Mostly Cloudy,210,2013-02-24 04:54:00
10:54 PM,30.0,19.0,64,29.66,10.0,NW,9.2,-,N/A,,Mostly Cloudy,320,2013-02-24 05:54:00
11:54 PM,30.9,19.9,64,29.65,10.0,NNW,20.7,24.2,N/A,,Mostly Cloudy,340,2013-02-24 06:54:00